Simultaneous Nadir Overpasses (SNOs) Predictions

Prediction of SNOs between METOP-B and TERRA Satellite Orbit:

Table of predicted SNOs for the next 14.0 days since TLE Epoch: 3/2/2024
Index Date (METOP-B) Time (METOP-B) Lat,Lon (METOP-B) SZA (METOP-B ) Date (TERRA) Time (TERRA) Lat,Lon (TERRA) SZA (TERRA ) Distance(km) Time Diff (sec)
1 03/03/2024 03:40:24 -80.41, -30.35 92.31 03/03/2024 03:40:41 -80.40, -30.43 92.32 1.62 17
2 03/03/2024 04:31:00 80.52, 138.39 87.87 03/03/2024 04:29:58 80.52, 138.32 87.85 1.27 62
3 03/05/2024 18:10:49 -80.27, 110.44 93.53 03/05/2024 18:12:00 -80.28, 110.58 93.50 2.73 71
4 03/05/2024 19:01:23 80.44, -80.24 86.74 03/05/2024 19:01:16 80.43, -80.40 86.71 3.20 7
5 03/08/2024 09:31:45 80.35, 61.10 85.59 03/08/2024 09:32:32 80.35, 61.05 85.59 0.85 47
6 03/08/2024 10:22:23 -80.44,-130.49 94.28 03/08/2024 10:21:52 -80.44,-130.50 94.30 0.56 31
7 03/11/2024 00:52:45 -80.38, 11.13 95.40 03/11/2024 00:53:08 -80.38, 11.10 95.40 0.65 23
8 03/11/2024 01:43:22 80.46, 179.50 84.73 03/11/2024 01:42:26 80.46, 179.53 84.72 0.58 56



Historial Predications of SNOs between METOP-B and TERRA
